WAT1495 KATL-KJFK

Flight info

Callsign WAT1495
Flight time 1h 40m
Altitude 35000
Route PHIIL3 HRTWL Q64 SAWED Q108 SIE CAMRN5
Aircraft B738/M-SDE2E3FGHIRWXY/LB1

Departure

Time 2026-05-07 00:28
Airport Hartsfield Jackson Atlanta International Airport (KATL)

Arrival

Time 2026-05-07 02:09
Airport John F. Kennedy International Airport (KJFK)
Time Latitude Longitude Altitude Speed Heading
2026-05-07 00:12 33.63818 -84.42876 1004 ft 0 kts 270°
2026-05-07 00:20 33.63817 -84.42862 1003 ft 2 kts 274°
2026-05-07 00:20 33.63817 -84.42844 1003 ft 2 kts 269°
2026-05-07 00:20 33.63817 -84.42828 1003 ft 1 kts 271°
2026-05-07 00:21 33.63817 -84.42815 1002 ft 1 kts 252°
2026-05-07 00:21 33.63824 -84.42802 1002 ft 1 kts 219°
2026-05-07 00:21 33.63834 -84.42796 1003 ft 1 kts 188°
2026-05-07 00:21 33.63839 -84.42795 1003 ft 0 kts 181°
2026-05-07 00:23 33.63838 -84.42795 1003 ft 0 kts 181°
2026-05-07 00:23 33.63788 -84.42796 1002 ft 9 kts 181°
2026-05-07 00:23 33.63741 -84.42796 1002 ft 4 kts 180°
2026-05-07 00:23 33.63703 -84.42788 1002 ft 6 kts 153°
2026-05-07 00:24 33.63665 -84.42718 1000 ft 12 kts 105°
2026-05-07 00:24 33.63657 -84.42601 998 ft 16 kts 90°
2026-05-07 00:24 33.63658 -84.42461 995 ft 17 kts 90°
2026-05-07 00:24 33.63657 -84.42300 989 ft 19 kts 91°
2026-05-07 00:25 33.63637 -84.42168 984 ft 15 kts 116°
2026-05-07 00:25 33.63587 -84.42040 980 ft 16 kts 101°
2026-05-07 00:25 33.63583 -84.41879 972 ft 21 kts 89°
2026-05-07 00:25 33.63584 -84.41699 965 ft 21 kts 90°
2026-05-07 00:26 33.63583 -84.41518 963 ft 23 kts 92°
2026-05-07 00:26 33.63582 -84.41320 961 ft 22 kts 90°
2026-05-07 00:26 33.63582 -84.41140 961 ft 22 kts 90°
2026-05-07 00:26 33.63581 -84.40978 957 ft 17 kts 95°
2026-05-07 00:27 33.63514 -84.40904 955 ft 12 kts 186°
2026-05-07 00:27 33.63472 -84.40970 957 ft 9 kts 264°
2026-05-07 00:27 33.63469 -84.41087 960 ft 32 kts 270°
2026-05-07 00:27 33.63466 -84.41698 966 ft 112 kts 270°
2026-05-07 00:28 33.63465 -84.42914 1033 ft 173 kts 268°
2026-05-07 00:28 33.63510 -84.44430 1567 ft 198 kts 270°
2026-05-07 00:28 33.63590 -84.46142 2361 ft 216 kts 269°
2026-05-07 00:28 33.63459 -84.47852 3524 ft 211 kts 251°
2026-05-07 00:29 33.62806 -84.49503 4297 ft 229 kts 238°
2026-05-07 00:29 33.61950 -84.51171 5223 ft 241 kts 240°
2026-05-07 00:30 33.59582 -84.56492 8454 ft 239 kts 240°
2026-05-07 00:30 33.58538 -84.58085 8995 ft 255 kts 224°
2026-05-07 00:30 33.56898 -84.59020 9528 ft 276 kts 196°
2026-05-07 00:30 33.54927 -84.59015 10326 ft 286 kts 181°
2026-05-07 00:31 33.52983 -84.58709 11152 ft 285 kts 181°
2026-05-07 00:31 33.51012 -84.58489 11889 ft 285 kts 185°
2026-05-07 00:31 33.49013 -84.58244 12450 ft 297 kts 180°
2026-05-07 00:31 33.46993 -84.57549 13099 ft 312 kts 162°
2026-05-07 00:32 33.45253 -84.55929 13893 ft 327 kts 135°
2026-05-07 00:32 33.44121 -84.53475 14237 ft 351 kts 113°
2026-05-07 00:32 33.43565 -84.50577 13896 ft 375 kts 97°
2026-05-07 00:32 33.43845 -84.47459 13991 ft 388 kts 76°
2026-05-07 00:33 33.44548 -84.44361 14950 ft 382 kts 74°
2026-05-07 00:33 33.45150 -84.41297 15863 ft 377 kts 78°
2026-05-07 00:33 33.45520 -84.38262 16694 ft 373 kts 84°
2026-05-07 00:33 33.45778 -84.35145 17250 ft 378 kts 83°
2026-05-07 00:34 33.46102 -84.31998 17786 ft 383 kts 79°
2026-05-07 00:34 33.46649 -84.28927 18380 ft 383 kts 74°
2026-05-07 00:34 33.47391 -84.25813 18868 ft 389 kts 70°
2026-05-07 00:34 33.48207 -84.22759 19350 ft 393 kts 69°
2026-05-07 00:35 33.49055 -84.19640 19845 ft 398 kts 70°
2026-05-07 00:35 33.49908 -84.16441 20355 ft 402 kts 70°
2026-05-07 00:35 33.50732 -84.13275 21029 ft 398 kts 70°
2026-05-07 00:35 33.51540 -84.10124 21349 ft 406 kts 71°
2026-05-07 00:36 33.52381 -84.06840 21520 ft 416 kts 70°
2026-05-07 00:36 33.53234 -84.03502 21716 ft 428 kts 70°
2026-05-07 00:36 33.54115 -84.00038 21770 ft 437 kts 70°
2026-05-07 00:36 33.54995 -83.96549 21852 ft 451 kts 71°
2026-05-07 00:37 33.55918 -83.92875 21975 ft 460 kts 70°
2026-05-07 00:37 33.56837 -83.89212 22048 ft 473 kts 71°
2026-05-07 00:37 33.57803 -83.85375 22187 ft 486 kts 71°
2026-05-07 00:37 33.58879 -83.81514 22579 ft 493 kts 67°
2026-05-07 00:38 33.60151 -83.77692 23355 ft 491 kts 64°
2026-05-07 00:38 33.61520 -83.73957 23937 ft 494 kts 62°
2026-05-07 00:38 33.62965 -83.70214 24523 ft 497 kts 60°
2026-05-07 00:38 33.64445 -83.66499 25008 ft 502 kts 60°
2026-05-07 00:39 33.65826 -83.62588 25565 ft 508 kts 66°
2026-05-07 00:39 33.66898 -83.58588 26241 ft 510 kts 71°
2026-05-07 00:39 33.67758 -83.54517 27039 ft 507 kts 73°
2026-05-07 00:39 33.68509 -83.50406 27758 ft 504 kts 75°
2026-05-07 00:40 33.69207 -83.46312 28518 ft 500 kts 75°
2026-05-07 00:40 33.69883 -83.42271 29232 ft 496 kts 75°
2026-05-07 00:40 33.70573 -83.38187 29765 ft 496 kts 75°
2026-05-07 00:40 33.71266 -83.34163 30221 ft 496 kts 75°
2026-05-07 00:41 33.71975 -83.30142 30603 ft 496 kts 75°
2026-05-07 00:41 33.72704 -83.26071 30907 ft 498 kts 75°
2026-05-07 00:41 33.73442 -83.22014 31178 ft 501 kts 75°
2026-05-07 00:41 33.74259 -83.17940 31434 ft 503 kts 72°
2026-05-07 00:42 33.75278 -83.13952 31662 ft 504 kts 66°
2026-05-07 00:42 33.76598 -83.10091 31955 ft 501 kts 60°
2026-05-07 00:42 33.78210 -83.06409 32345 ft 496 kts 53°
2026-05-07 00:42 33.80014 -83.02914 32754 ft 491 kts 51°
2026-05-07 00:43 33.81895 -82.99538 33240 ft 486 kts 49°
2026-05-07 00:43 33.83812 -82.96162 33543 ft 488 kts 50°
2026-05-07 00:43 33.87572 -82.89408 33657 ft 492 kts 51°
2026-05-07 00:44 33.89452 -82.85928 33846 ft 495 kts 51°
2026-05-07 00:44 33.91282 -82.82474 34318 ft 493 kts 51°
2026-05-07 00:44 33.93099 -82.78996 34646 ft 493 kts 52°
2026-05-07 00:44 33.94923 -82.75469 34922 ft 494 kts 52°
2026-05-07 00:45 33.98536 -82.68440 34949 ft 499 kts 51°
2026-05-07 00:45 34.02198 -82.61259 34938 ft 510 kts 52°
2026-05-07 00:46 34.05915 -82.53898 34934 ft 521 kts 52°
2026-05-07 00:46 34.09696 -82.46383 34943 ft 530 kts 52°
2026-05-07 00:47 34.13539 -82.38729 34941 ft 531 kts 52°
2026-05-07 00:47 34.17328 -82.31151 34951 ft 530 kts 53°
2026-05-07 00:48 34.21143 -82.23524 34955 ft 532 kts 53°
2026-05-07 00:48 34.24977 -82.15853 34958 ft 530 kts 53°
2026-05-07 00:49 34.28751 -82.08314 34955 ft 524 kts 53°
2026-05-07 00:49 34.32542 -82.00791 34952 ft 527 kts 53°
2026-05-07 00:50 34.36314 -81.93284 34953 ft 524 kts 53°
2026-05-07 00:50 34.40131 -81.85683 34953 ft 527 kts 53°
2026-05-07 00:51 34.43910 -81.78127 34953 ft 523 kts 52°
2026-05-07 00:51 34.47666 -81.70597 34952 ft 524 kts 53°
2026-05-07 00:52 34.51421 -81.63055 34944 ft 526 kts 52°
2026-05-07 00:52 34.55176 -81.55481 34937 ft 524 kts 53°
2026-05-07 00:53 34.58942 -81.47875 34931 ft 524 kts 53°
2026-05-07 00:53 34.62666 -81.40334 34939 ft 524 kts 53°
2026-05-07 00:54 34.66424 -81.32715 34945 ft 524 kts 54°
2026-05-07 00:54 34.70184 -81.25098 34948 ft 526 kts 54°
2026-05-07 00:55 34.73911 -81.17513 34951 ft 526 kts 54°
2026-05-07 00:55 34.77649 -81.09887 34961 ft 526 kts 54°
2026-05-07 00:56 34.81224 -81.02110 34951 ft 530 kts 58°
2026-05-07 00:56 34.84339 -80.93948 34953 ft 533 kts 62°
2026-05-07 00:57 34.87292 -80.85648 34950 ft 538 kts 62°
2026-05-07 00:57 34.90272 -80.77246 34949 ft 540 kts 62°
2026-05-07 00:58 34.93259 -80.68922 34950 ft 539 kts 62°
2026-05-07 00:58 34.96292 -80.60565 34954 ft 537 kts 62°
2026-05-07 00:59 35.00827 -80.48135 34941 ft 538 kts 62°
2026-05-07 01:00 35.03865 -80.39782 34935 ft 537 kts 62°
2026-05-07 01:00 35.06895 -80.31438 34931 ft 538 kts 61°
2026-05-07 01:01 35.09908 -80.23111 34936 ft 543 kts 62°
2026-05-07 01:01 35.12961 -80.14637 34933 ft 540 kts 62°
2026-05-07 01:02 35.15968 -80.06259 34934 ft 542 kts 61°
2026-05-07 01:02 35.18975 -79.97871 34937 ft 543 kts 61°
2026-05-07 01:03 35.21994 -79.89437 34934 ft 540 kts 62°
2026-05-07 01:03 35.24996 -79.81044 34940 ft 539 kts 61°
2026-05-07 01:04 35.28011 -79.72588 34940 ft 544 kts 61°
2026-05-07 01:04 35.31031 -79.64095 34944 ft 543 kts 62°
2026-05-07 01:05 35.34030 -79.55640 34945 ft 540 kts 60°
2026-05-07 01:05 35.37026 -79.47186 34941 ft 544 kts 61°
2026-05-07 01:06 35.40044 -79.38635 34941 ft 543 kts 61°
2026-05-07 01:06 35.43036 -79.30126 34943 ft 543 kts 61°
2026-05-07 01:07 35.46011 -79.21623 34936 ft 542 kts 61°
2026-05-07 01:07 35.48979 -79.13141 34937 ft 545 kts 61°
2026-05-07 01:08 35.51963 -79.04591 34935 ft 545 kts 61°
2026-05-07 01:08 35.54934 -78.96027 34939 ft 544 kts 60°
2026-05-07 01:09 35.57885 -78.87516 34938 ft 546 kts 60°
2026-05-07 01:09 35.60856 -78.78943 34936 ft 548 kts 61°
2026-05-07 01:10 35.63834 -78.70322 34935 ft 551 kts 61°
2026-05-07 01:10 35.66804 -78.61674 34929 ft 550 kts 60°
2026-05-07 01:11 35.69730 -78.53117 34941 ft 548 kts 60°
2026-05-07 01:11 35.72686 -78.44466 34937 ft 547 kts 60°
2026-05-07 01:12 35.75623 -78.35852 34928 ft 548 kts 60°
2026-05-07 01:12 35.78595 -78.27134 34931 ft 552 kts 61°
2026-05-07 01:13 35.81535 -78.18487 34936 ft 549 kts 60°
2026-05-07 01:13 35.84471 -78.09803 34939 ft 548 kts 60°
2026-05-07 01:14 35.87392 -78.01139 34941 ft 549 kts 61°
2026-05-07 01:14 35.90305 -77.92465 34940 ft 548 kts 60°
2026-05-07 01:15 35.93218 -77.83776 34935 ft 550 kts 60°
2026-05-07 01:15 35.96205 -77.75177 34941 ft 545 kts 57°
2026-05-07 01:16 36.00056 -77.67297 34936 ft 532 kts 43°
2026-05-07 01:16 36.04727 -77.60409 34937 ft 515 kts 37°
2026-05-07 01:17 36.09642 -77.53947 34931 ft 520 kts 36°
2026-05-07 01:17 36.14607 -77.47516 34928 ft 515 kts 36°
2026-05-07 01:18 36.19503 -77.41054 34933 ft 517 kts 36°
2026-05-07 01:18 36.24423 -77.34477 34938 ft 521 kts 37°
2026-05-07 01:19 36.29328 -77.27867 34937 ft 521 kts 37°
2026-05-07 01:19 36.34345 -77.21471 34939 ft 512 kts 32°
2026-05-07 01:20 36.39576 -77.15556 34937 ft 509 kts 30°
2026-05-07 01:20 36.44912 -77.09723 34930 ft 511 kts 30°
2026-05-07 01:21 36.50223 -77.03885 34932 ft 512 kts 31°
2026-05-07 01:21 36.55509 -76.98001 34933 ft 512 kts 30°
2026-05-07 01:22 36.60825 -76.92042 34929 ft 516 kts 31°
2026-05-07 01:22 36.66097 -76.86095 34932 ft 510 kts 31°
2026-05-07 01:23 36.71378 -76.80109 34936 ft 513 kts 31°
2026-05-07 01:23 36.76668 -76.74125 34932 ft 514 kts 31°
2026-05-07 01:24 36.81936 -76.68132 34931 ft 510 kts 31°
2026-05-07 01:24 36.87205 -76.62138 34921 ft 517 kts 31°
2026-05-07 01:25 36.92493 -76.56106 34918 ft 512 kts 31°
2026-05-07 01:25 36.97761 -76.50095 34917 ft 519 kts 31°
2026-05-07 01:26 37.03114 -76.43985 34913 ft 523 kts 31°
2026-05-07 01:26 37.08408 -76.37894 34913 ft 512 kts 31°
2026-05-07 01:27 37.13636 -76.31887 34913 ft 518 kts 32°
2026-05-07 01:27 37.18915 -76.25818 34913 ft 520 kts 32°
2026-05-07 01:28 37.24248 -76.19679 34910 ft 519 kts 32°
2026-05-07 01:28 37.29543 -76.13542 34905 ft 517 kts 32°
2026-05-07 01:29 37.34779 -76.07467 34901 ft 516 kts 32°
2026-05-07 01:29 37.40041 -76.01361 34902 ft 514 kts 32°
2026-05-07 01:30 37.45344 -75.95209 34901 ft 523 kts 33°
2026-05-07 01:30 37.50655 -75.89075 34900 ft 514 kts 31°
2026-05-07 01:31 37.56184 -75.83607 34902 ft 501 kts 23°
2026-05-07 01:31 37.62049 -75.78979 34901 ft 496 kts 19°
2026-05-07 01:32 37.68054 -75.74596 34900 ft 497 kts 18°
2026-05-07 01:32 37.74011 -75.70258 34899 ft 499 kts 18°
2026-05-07 01:33 37.80016 -75.65813 34899 ft 502 kts 18°
2026-05-07 01:33 37.85991 -75.61300 34891 ft 498 kts 20°
2026-05-07 01:34 37.91825 -75.56400 34893 ft 507 kts 23°
2026-05-07 01:34 37.97622 -75.51247 34899 ft 509 kts 24°
2026-05-07 01:35 38.03435 -75.46058 34893 ft 508 kts 23°
2026-05-07 01:35 38.09198 -75.41016 34900 ft 508 kts 21°
2026-05-07 01:36 38.15103 -75.36164 34899 ft 503 kts 20°
2026-05-07 01:36 38.21027 -75.31428 34897 ft 499 kts 18°
2026-05-07 01:37 38.27195 -75.27895 34900 ft 478 kts
2026-05-07 01:37 38.33541 -75.26026 34904 ft 460 kts 356°
2026-05-07 01:38 38.39836 -75.24760 34901 ft 460 kts 354°
2026-05-07 01:38 38.46206 -75.23563 34904 ft 457 kts 354°
2026-05-07 01:39 38.52523 -75.22315 34899 ft 463 kts 355°
2026-05-07 01:39 38.58886 -75.21026 34895 ft 461 kts 355°
2026-05-07 01:40 38.65196 -75.19705 34895 ft 463 kts 356°
2026-05-07 01:40 38.68376 -75.18822 34895 ft 476 kts
2026-05-07 01:40 38.71506 -75.17291 34897 ft 498 kts 14°
2026-05-07 01:40 38.74514 -75.14986 34898 ft 511 kts 21°
2026-05-07 01:41 38.77459 -75.12343 34416 ft 527 kts 25°
2026-05-07 01:41 38.80423 -75.09473 33691 ft 533 kts 28°
2026-05-07 01:41 38.83319 -75.06543 33010 ft 533 kts 28°
2026-05-07 01:41 38.86199 -75.03580 32338 ft 532 kts 29°
2026-05-07 01:42 38.89094 -75.00595 31660 ft 533 kts 29°
2026-05-07 01:42 38.91974 -74.97641 30994 ft 531 kts 29°
2026-05-07 01:42 38.94854 -74.94715 30324 ft 533 kts 29°
2026-05-07 01:42 38.97784 -74.91773 29654 ft 538 kts 29°
2026-05-07 01:43 39.00729 -74.88834 28991 ft 536 kts 29°
2026-05-07 01:43 39.03653 -74.85922 28333 ft 535 kts 29°
2026-05-07 01:43 39.06600 -74.82996 27672 ft 537 kts 29°
2026-05-07 01:43 39.09544 -74.80073 27010 ft 533 kts 29°
2026-05-07 01:44 39.12428 -74.77146 26369 ft 530 kts 30°
2026-05-07 01:44 39.15247 -74.74173 25741 ft 527 kts 32°
2026-05-07 01:44 39.18034 -74.71158 25113 ft 524 kts 32°
2026-05-07 01:44 39.20818 -74.68104 24478 ft 520 kts 32°
2026-05-07 01:45 39.23522 -74.65125 23858 ft 516 kts 32°
2026-05-07 01:45 39.26260 -74.62105 23241 ft 512 kts 32°
2026-05-07 01:45 39.28949 -74.59150 22636 ft 507 kts 32°
2026-05-07 01:45 39.31615 -74.56226 22047 ft 503 kts 32°
2026-05-07 01:46 39.34254 -74.53339 21423 ft 499 kts 32°
2026-05-07 01:46 39.36900 -74.50449 20843 ft 494 kts 32°
2026-05-07 01:46 39.39517 -74.47594 20219 ft 489 kts 33°
2026-05-07 01:46 39.42080 -74.44798 19614 ft 484 kts 33°
2026-05-07 01:47 39.44661 -74.41984 19003 ft 479 kts 33°
2026-05-07 01:47 39.47185 -74.39229 18395 ft 474 kts 34°
2026-05-07 01:47 39.49668 -74.36514 18052 ft 462 kts 34°
2026-05-07 01:47 39.52044 -74.33905 18038 ft 444 kts 34°
2026-05-07 01:48 39.54369 -74.31351 18016 ft 438 kts 34°
2026-05-07 01:48 39.56681 -74.28814 18022 ft 427 kts 34°
2026-05-07 01:48 39.58953 -74.26322 18010 ft 428 kts 34°
2026-05-07 01:48 39.61235 -74.23830 17950 ft 433 kts 34°
2026-05-07 01:49 39.63542 -74.21307 17556 ft 431 kts 34°
2026-05-07 01:49 39.65799 -74.18834 17084 ft 427 kts 34°
2026-05-07 01:49 39.68035 -74.16379 16601 ft 423 kts 34°
2026-05-07 01:49 39.70278 -74.13911 16117 ft 420 kts 35°
2026-05-07 01:50 39.72485 -74.11479 15632 ft 417 kts 35°
2026-05-07 01:50 39.74683 -74.09053 15143 ft 413 kts 36°
2026-05-07 01:50 39.76859 -74.06651 14673 ft 414 kts 35°
2026-05-07 01:50 39.79052 -74.04227 14179 ft 412 kts 36°
2026-05-07 01:51 39.81207 -74.01845 13694 ft 408 kts 36°
2026-05-07 01:51 39.83391 -73.99461 13206 ft 404 kts 34°
2026-05-07 01:51 39.85665 -73.97383 12726 ft 398 kts 27°
2026-05-07 01:51 39.88034 -73.95570 12249 ft 393 kts 24°
2026-05-07 01:52 39.90436 -73.93896 11767 ft 392 kts 23°
2026-05-07 01:52 39.92837 -73.92282 11278 ft 388 kts 22°
2026-05-07 01:52 39.95208 -73.90683 10989 ft 377 kts 24°
2026-05-07 01:52 39.97464 -73.89114 10983 ft 360 kts 25°
2026-05-07 01:53 39.99576 -73.87499 10976 ft 343 kts 26°
2026-05-07 01:53 40.01530 -73.85908 10987 ft 329 kts 27°
2026-05-07 01:53 40.03490 -73.84292 10987 ft 331 kts 27°
2026-05-07 01:53 40.05411 -73.82702 10912 ft 324 kts 27°
2026-05-07 01:54 40.07309 -73.81128 10490 ft 325 kts 27°
2026-05-07 01:54 40.09220 -73.79547 10058 ft 325 kts 27°
2026-05-07 01:54 40.11126 -73.77975 9644 ft 326 kts 27°
2026-05-07 01:54 40.13021 -73.76404 9322 ft 322 kts 28°
2026-05-07 01:55 40.14914 -73.74836 8918 ft 322 kts 27°
2026-05-07 01:55 40.16793 -73.73288 8650 ft 315 kts 27°
2026-05-07 01:55 40.18632 -73.71768 8387 ft 310 kts 27°
2026-05-07 01:55 40.20440 -73.70276 8051 ft 309 kts 27°
2026-05-07 01:56 40.22247 -73.68782 7730 ft 307 kts 27°
2026-05-07 01:56 40.24053 -73.67291 7355 ft 306 kts 27°
2026-05-07 01:56 40.25853 -73.65809 6971 ft 306 kts 27°
2026-05-07 01:56 40.27639 -73.64335 6610 ft 304 kts 27°
2026-05-07 01:57 40.29423 -73.62882 6310 ft 300 kts 28°
2026-05-07 01:57 40.31190 -73.61456 6019 ft 297 kts 26°
2026-05-07 01:57 40.32939 -73.60025 5677 ft 296 kts 27°
2026-05-07 01:57 40.34680 -73.58590 5311 ft 295 kts 28°
2026-05-07 01:58 40.36420 -73.57176 4971 ft 293 kts 27°
2026-05-07 01:58 40.38153 -73.55784 4628 ft 291 kts 27°
2026-05-07 01:58 40.39860 -73.54409 4346 ft 287 kts 27°
2026-05-07 01:58 40.41566 -73.53042 4033 ft 285 kts 27°
2026-05-07 01:59 40.43262 -73.51695 3989 ft 283 kts 26°
2026-05-07 01:59 40.44968 -73.50375 3982 ft 283 kts 21°
2026-05-07 01:59 40.46823 -73.49661 3999 ft 276 kts
2026-05-07 01:59 40.48706 -73.49440 3993 ft 273 kts 357°
2026-05-07 02:00 40.50613 -73.49307 3991 ft 272 kts 356°
2026-05-07 02:00 40.52497 -73.49181 3991 ft 272 kts 357°
2026-05-07 02:00 40.54384 -73.49059 3990 ft 273 kts 356°
2026-05-07 02:00 40.56293 -73.48930 3980 ft 271 kts 357°
2026-05-07 02:01 40.58178 -73.48810 3990 ft 272 kts 357°
2026-05-07 02:01 40.60077 -73.48689 3987 ft 271 kts 356°
2026-05-07 02:01 40.61962 -73.48562 3988 ft 273 kts 357°
2026-05-07 02:01 40.63846 -73.48431 3987 ft 272 kts 356°
2026-05-07 02:02 40.65728 -73.48302 3820 ft 267 kts 356°
2026-05-07 02:02 40.67590 -73.48175 3435 ft 268 kts 357°
2026-05-07 02:02 40.69435 -73.48061 3116 ft 266 kts 357°
2026-05-07 02:02 40.71281 -73.47957 2803 ft 264 kts 357°
2026-05-07 02:03 40.73111 -73.48032 2452 ft 257 kts 342°
2026-05-07 02:03 40.74663 -73.48982 2102 ft 246 kts 315°
2026-05-07 02:03 40.75715 -73.50693 1999 ft 230 kts 299°
2026-05-07 02:03 40.76492 -73.52453 1996 ft 212 kts 297°
2026-05-07 02:04 40.77196 -73.54064 1982 ft 199 kts 297°
2026-05-07 02:04 40.77735 -73.55727 1986 ft 196 kts 277°
2026-05-07 02:04 40.77632 -73.57501 1992 ft 196 kts 258°
2026-05-07 02:04 40.77287 -73.59258 1988 ft 197 kts 256°
2026-05-07 02:05 40.76946 -73.60986 1987 ft 197 kts 257°
2026-05-07 02:05 40.76491 -73.62683 1987 ft 198 kts 244°
2026-05-07 02:05 40.75729 -73.64200 1988 ft 202 kts 237°
2026-05-07 02:05 40.74914 -73.65655 1979 ft 191 kts 237°
2026-05-07 02:06 40.74147 -73.67018 1978 ft 177 kts 237°
2026-05-07 02:06 40.73427 -73.68272 1985 ft 172 kts 233°
2026-05-07 02:06 40.72501 -73.69298 1894 ft 177 kts 218°
2026-05-07 02:06 40.71423 -73.70117 1596 ft 180 kts 214°
2026-05-07 02:07 40.70340 -73.70937 1362 ft 180 kts 215°
2026-05-07 02:07 40.68342 -73.72514 898 ft 160 kts 213°
2026-05-07 02:07 40.67399 -73.73236 667 ft 156 kts 212°
2026-05-07 02:08 40.66461 -73.73969 465 ft 157 kts 212°
2026-05-07 02:08 40.65530 -73.74693 281 ft 155 kts 211°
2026-05-07 02:08 40.64608 -73.75413 82 ft 154 kts 210°
2026-05-07 02:08 40.63744 -73.76083 15 ft 119 kts 209°
2026-05-07 02:09 40.63310 -73.76424 15 ft 47 kts 211°
2026-05-07 02:09 40.63063 -73.76637 12 ft 29 kts 224°
2026-05-07 02:09 40.62954 -73.76829 12 ft 17 kts 239°
2026-05-07 02:09 40.62936 -73.76984 12 ft 17 kts 294°
2026-05-07 02:10 40.62999 -73.77132 12 ft 19 kts 299°
2026-05-07 02:10 40.63069 -73.77290 12 ft 20 kts 300°
2026-05-07 02:10 40.63141 -73.77447 12 ft 20 kts 302°
2026-05-07 02:10 40.63217 -73.77609 12 ft 21 kts 300°
2026-05-07 02:11 40.63285 -73.77760 12 ft 18 kts 300°
2026-05-07 02:11 40.63368 -73.77817 12 ft 15 kts 24°
2026-05-07 02:11 40.63467 -73.77743 13 ft 13 kts 17°
2026-05-07 02:11 40.63537 -73.77798 13 ft 13 kts 304°
2026-05-07 02:12 40.63594 -73.77877 13 ft 10 kts 336°
2026-05-07 02:12 40.63667 -73.77899 15 ft 10 kts 353°
2026-05-07 02:12 40.63742 -73.77910 15 ft 10 kts 354°
2026-05-07 02:12 40.63801 -73.77918 15 ft 7 kts 351°
2026-05-07 02:13 40.63842 -73.77947 15 ft 6 kts 308°
2026-05-07 02:13 40.63850 -73.77984 15 ft 3 kts 269°
2026-05-07 02:13 40.63848 -73.78020 15 ft 4 kts 263°
2026-05-07 02:13 40.63845 -73.78046 15 ft 0 kts 263°